Time,TemperatureF,DewpointF,PressureIn,WindDirection,WindDirectionDegrees,WindSpeedMPH,WindSpeedGustMPH,Humidity,HourlyPrecipIn,Conditions,Clouds,dailyrainin,SoftwareType,DateUTC
2013-02-07 00:00:00,17.4,5.5,30.38,NE,46,0.0,4.0,59,0.00,,,0.00,meteohub,2013-02-07 05:00:00,
2013-02-07 00:01:00,17.4,5.5,30.38,NNE,20,0.0,4.0,59,0.00,,,0.00,meteohub,2013-02-07 05:01:00,
2013-02-07 00:06:00,17.1,5.9,30.38,NNE,20,0.0,4.0,61,0.00,,,0.00,meteohub,2013-02-07 05:06:00,
2013-02-07 00:11:00,16.5,5.7,30.38,North,349,0.0,4.0,62,0.00,,,0.00,meteohub,2013-02-07 05:11:00,
2013-02-07 00:16:00,16.2,5.7,30.38,ENE,64,0.0,4.0,63,0.00,,,0.00,meteohub,2013-02-07 05:16:00,
2013-02-07 00:21:00,16.2,6.1,30.38,ESE,121,1.0,2.0,64,0.00,,,0.00,meteohub,2013-02-07 05:21:00,
2013-02-07 00:26:00,16.2,6.4,30.38,ESE,122,0.0,4.0,65,0.00,,,0.00,meteohub,2013-02-07 05:26:00,
2013-02-07 00:32:00,16.0,6.3,30.38,ESE,122,0.0,4.0,65,0.00,,,0.00,meteohub,2013-02-07 05:32:00,
2013-02-07 00:37:00,15.4,6.4,30.38,ESE,122,0.0,4.0,67,0.00,,,0.00,meteohub,2013-02-07 05:37:00,
2013-02-07 00:42:00,15.3,6.3,30.38,SE,128,0.0,4.0,67,0.00,,,0.00,meteohub,2013-02-07 05:42:00,
2013-02-07 00:47:00,15.3,6.3,30.38,SE,128,0.0,4.0,67,0.00,,,0.00,meteohub,2013-02-07 05:47:00,
2013-02-07 00:52:00,15.1,6.8,30.37,SE,128,0.0,4.0,69,0.00,,,0.00,meteohub,2013-02-07 05:52:00,
2013-02-07 00:57:00,14.7,6.4,30.37,SE,128,0.0,1.0,69,0.00,,,0.00,meteohub,2013-02-07 05:57:00,
2013-02-07 01:02:00,14.7,6.8,30.37,SE,128,0.0,1.0,70,0.00,,,0.00,meteohub,2013-02-07 06:02:00,
2013-02-07 01:07:00,14.5,6.8,30.36,SE,128,0.0,2.0,71,0.00,,,0.00,meteohub,2013-02-07 06:07:00,
2013-02-07 01:12:00,14.4,6.6,30.36,SE,128,0.0,2.0,71,0.00,,,0.00,meteohub,2013-02-07 06:12:00,
2013-02-07 01:17:00,14.4,7.0,30.36,SE,128,1.0,2.0,72,0.00,,,0.00,meteohub,2013-02-07 06:17:00,
2013-02-07 01:22:00,14.4,7.0,30.36,SE,128,0.0,2.0,72,0.00,,,0.00,meteohub,2013-02-07 06:22:00,
2013-02-07 01:27:00,14.2,6.8,30.36,SE,128,0.0,2.0,72,0.00,,,0.00,meteohub,2013-02-07 06:27:00,
2013-02-07 01:32:00,14.2,7.2,30.36,SE,128,0.0,3.0,73,0.00,,,0.00,meteohub,2013-02-07 06:32:00,
2013-02-07 01:37:00,13.8,6.8,30.36,SE,128,0.0,3.0,73,0.00,,,0.00,meteohub,2013-02-07 06:37:00,
2013-02-07 01:42:00,13.8,6.8,30.37,SE,128,0.0,1.0,73,0.00,,,0.00,meteohub,2013-02-07 06:42:00,
2013-02-07 01:47:00,13.6,7.0,30.38,SE,128,0.0,1.0,74,0.00,,,0.00,meteohub,2013-02-07 06:47:00,
2013-02-07 01:52:00,13.6,7.2,30.38,SE,128,0.0,1.0,75,0.00,,,0.00,meteohub,2013-02-07 06:52:00,
2013-02-07 01:57:00,13.6,7.0,30.38,SE,128,0.0,1.0,74,0.00,,,0.00,meteohub,2013-02-07 06:57:00,
2013-02-07 02:02:00,13.6,7.2,30.38,SE,128,0.0,1.0,75,0.00,,,0.00,meteohub,2013-02-07 07:02:00,
2013-02-07 02:07:00,13.3,7.2,30.38,SE,128,0.0,1.0,76,0.00,,,0.00,meteohub,2013-02-07 07:07:00,
2013-02-07 02:12:00,13.1,7.0,30.39,SE,128,0.0,0.0,76,0.00,,,0.00,meteohub,2013-02-07 07:12:00,
2013-02-07 02:17:00,12.9,7.2,30.39,SE,128,0.0,0.0,77,0.00,,,0.00,meteohub,2013-02-07 07:17:00,
2013-02-07 02:22:00,12.7,7.0,30.40,SE,128,0.0,1.0,77,0.00,,,0.00,meteohub,2013-02-07 07:22:00,
2013-02-07 02:28:00,12.7,7.0,30.40,SE,128,0.0,1.0,77,0.00,,,0.00,meteohub,2013-02-07 07:28:00,
2013-02-07 02:33:00,12.6,7.0,30.41,SE,128,0.0,1.0,78,0.00,,,0.00,meteohub,2013-02-07 07:33:00,
2013-02-07 02:38:00,12.6,7.0,30.41,SE,128,0.0,0.0,78,0.00,,,0.00,meteohub,2013-02-07 07:38:00,
2013-02-07 02:43:00,12.4,7.2,30.41,SE,128,0.0,0.0,79,0.00,,,0.00,meteohub,2013-02-07 07:43:00,
2013-02-07 02:48:00,12.2,7.2,30.41,SE,128,0.0,0.0,80,0.00,,,0.00,meteohub,2013-02-07 07:48:00,
2013-02-07 02:53:00,12.0,7.3,30.41,SE,128,0.0,0.0,81,0.00,,,0.00,meteohub,2013-02-07 07:53:00,
2013-02-07 02:58:00,12.0,7.0,30.41,SE,128,0.0,1.0,80,0.00,,,0.00,meteohub,2013-02-07 07:58:00,
2013-02-07 03:03:00,12.0,7.0,30.41,SE,128,0.0,1.0,80,0.00,,,0.00,meteohub,2013-02-07 08:03:00,
2013-02-07 03:08:00,12.0,7.0,30.41,SE,128,0.0,1.0,80,0.00,,,0.00,meteohub,2013-02-07 08:08:00,
2013-02-07 03:13:00,11.8,7.2,30.41,SE,128,0.0,0.0,81,0.00,,,0.00,meteohub,2013-02-07 08:13:00,
2013-02-07 03:18:00,11.7,7.0,30.41,SE,128,0.0,0.0,81,0.00,,,0.00,meteohub,2013-02-07 08:18:00,
2013-02-07 03:23:00,11.7,7.5,30.42,SE,128,0.0,0.0,83,0.00,,,0.00,meteohub,2013-02-07 08:23:00,
2013-02-07 03:28:00,11.7,7.2,30.42,SE,128,0.0,0.0,82,0.00,,,0.00,meteohub,2013-02-07 08:28:00,
2013-02-07 03:33:00,11.5,7.3,30.42,SE,128,0.0,0.0,83,0.00,,,0.00,meteohub,2013-02-07 08:33:00,
2013-02-07 03:39:00,11.5,7.3,30.41,SE,128,0.0,0.0,83,0.00,,,0.00,meteohub,2013-02-07 08:39:00,
2013-02-07 03:44:00,11.5,7.3,30.42,SE,128,0.0,0.0,83,0.00,,,0.00,meteohub,2013-02-07 08:44:00,
2013-02-07 03:49:00,11.3,7.3,30.42,SE,128,0.0,0.0,84,0.00,,,0.00,meteohub,2013-02-07 08:49:00,
2013-02-07 03:54:00,11.3,7.3,30.42,SE,128,0.0,0.0,84,0.00,,,0.00,meteohub,2013-02-07 08:54:00,
2013-02-07 03:59:00,11.1,7.2,30.42,SE,128,0.0,0.0,84,0.00,,,0.00,meteohub,2013-02-07 08:59:00,
2013-02-07 04:04:00,11.1,7.2,30.42,SE,128,0.0,0.0,84,0.00,,,0.00,meteohub,2013-02-07 09:04:00,
2013-02-07 04:09:00,10.9,7.3,30.42,SE,128,0.0,1.0,85,0.00,,,0.00,meteohub,2013-02-07 09:09:00,
2013-02-07 04:14:00,11.1,7.2,30.42,SE,128,0.0,1.0,84,0.00,,,0.00,meteohub,2013-02-07 09:14:00,
2013-02-07 04:19:00,10.9,7.0,30.42,SE,128,0.0,0.0,84,0.00,,,0.00,meteohub,2013-02-07 09:19:00,
2013-02-07 04:24:00,10.9,7.0,30.42,SE,128,0.0,0.0,84,0.00,,,0.00,meteohub,2013-02-07 09:24:00,
2013-02-07 04:29:00,10.8,6.8,30.43,SE,128,0.0,0.0,84,0.00,,,0.00,meteohub,2013-02-07 09:29:00,
2013-02-07 04:34:00,10.6,6.6,30.43,SE,128,0.0,0.0,84,0.00,,,0.00,meteohub,2013-02-07 09:34:00,
2013-02-07 04:39:00,10.6,6.6,30.43,SE,128,0.0,0.0,84,0.00,,,0.00,meteohub,2013-02-07 09:39:00,
2013-02-07 04:44:00,10.6,6.6,30.43,SE,128,0.0,0.0,84,0.00,,,0.00,meteohub,2013-02-07 09:44:00,
2013-02-07 04:49:00,10.4,6.8,30.43,SE,128,0.0,0.0,85,0.00,,,0.00,meteohub,2013-02-07 09:49:00,
2013-02-07 04:55:00,10.2,6.6,30.43,SE,128,0.0,1.0,85,0.00,,,0.00,meteohub,2013-02-07 09:55:00,
2013-02-07 05:00:00,10.2,6.6,30.44,SE,128,0.0,1.0,85,0.00,,,0.00,meteohub,2013-02-07 10:00:00,
2013-02-07 05:05:00,10.2,6.8,30.44,SE,128,0.0,1.0,86,0.00,,,0.00,meteohub,2013-02-07 10:05:00,
2013-02-07 05:10:00,10.2,6.8,30.45,SE,128,0.0,1.0,86,0.00,,,0.00,meteohub,2013-02-07 10:10:00,
2013-02-07 05:15:00,10.2,6.8,30.45,SE,128,0.0,0.0,86,0.00,,,0.00,meteohub,2013-02-07 10:15:00,
2013-02-07 05:20:00,10.2,6.8,30.45,SE,128,0.0,0.0,86,0.00,,,0.00,meteohub,2013-02-07 10:20:00,
2013-02-07 05:25:00,10.0,6.6,30.45,SE,128,0.0,0.0,86,0.00,,,0.00,meteohub,2013-02-07 10:25:00,
2013-02-07 05:30:00,10.0,6.6,30.46,SE,128,0.0,0.0,86,0.00,,,0.00,meteohub,2013-02-07 10:30:00,
2013-02-07 05:35:00,10.0,6.6,30.46,SE,128,0.0,0.0,86,0.00,,,0.00,meteohub,2013-02-07 10:35:00,
2013-02-07 05:40:00,10.0,6.6,30.46,SE,128,0.0,0.0,86,0.00,,,0.00,meteohub,2013-02-07 10:40:00,
2013-02-07 05:45:00,9.9,6.8,30.46,SE,128,0.0,0.0,87,0.00,,,0.00,meteohub,2013-02-07 10:45:00,
2013-02-07 05:50:00,9.9,6.8,30.46,SE,128,0.0,0.0,87,0.00,,,0.00,meteohub,2013-02-07 10:50:00,
2013-02-07 05:56:00,9.9,6.8,30.46,SE,128,0.0,0.0,87,0.00,,,0.00,meteohub,2013-02-07 10:56:00,
2013-02-07 06:01:00,9.9,6.8,30.46,SE,128,0.0,0.0,87,0.00,,,0.00,meteohub,2013-02-07 11:01:00,
2013-02-07 06:06:00,9.9,6.8,30.46,SE,128,0.0,0.0,87,0.00,,,0.00,meteohub,2013-02-07 11:06:00,
2013-02-07 06:11:00,9.9,6.8,30.47,SE,128,0.0,0.0,87,0.00,,,0.00,meteohub,2013-02-07 11:11:00,
2013-02-07 06:16:00,9.9,6.8,30.47,SE,128,0.0,1.0,87,0.00,,,0.00,meteohub,2013-02-07 11:16:00,
2013-02-07 06:21:00,9.9,7.0,30.48,SE,128,0.0,1.0,88,0.00,,,0.00,meteohub,2013-02-07 11:21:00,
2013-02-07 06:26:00,9.9,7.0,30.48,SE,128,0.0,1.0,88,0.00,,,0.00,meteohub,2013-02-07 11:26:00,
2013-02-07 06:31:00,10.0,7.2,30.48,SE,128,0.0,1.0,88,0.00,,,0.00,meteohub,2013-02-07 11:31:00,
2013-02-07 06:36:00,10.2,7.7,30.48,SE,128,0.0,1.0,89,0.00,,,0.00,meteohub,2013-02-07 11:36:00,
2013-02-07 06:41:00,10.4,7.9,30.48,SE,128,0.0,1.0,89,0.00,,,0.00,meteohub,2013-02-07 11:41:00,
2013-02-07 06:46:00,10.6,8.1,30.48,SE,128,0.0,1.0,89,0.00,,,0.00,meteohub,2013-02-07 11:46:00,
2013-02-07 06:51:00,10.8,8.2,30.49,SE,128,0.0,1.0,89,0.00,,,0.00,meteohub,2013-02-07 11:51:00,
2013-02-07 06:56:00,10.9,8.4,30.50,SE,128,0.0,2.0,89,0.00,,,0.00,meteohub,2013-02-07 11:56:00,
2013-02-07 07:01:00,11.1,8.2,30.50,SE,128,0.0,2.0,88,0.00,,,0.00,meteohub,2013-02-07 12:01:00,
2013-02-07 07:06:00,11.1,8.2,30.50,SE,128,0.0,0.0,88,0.00,,,0.00,meteohub,2013-02-07 12:06:00,
2013-02-07 07:12:00,11.5,9.0,30.50,SE,128,0.0,0.0,89,0.00,,,0.00,meteohub,2013-02-07 12:12:00,
2013-02-07 07:17:00,11.5,9.0,30.50,SE,128,0.0,1.0,89,0.00,,,0.00,meteohub,2013-02-07 12:17:00,
2013-02-07 07:22:00,11.7,8.8,30.49,SE,128,0.0,1.0,88,0.00,,,0.00,meteohub,2013-02-07 12:22:00,
2013-02-07 07:27:00,11.7,8.8,30.50,SE,128,0.0,0.0,88,0.00,,,0.00,meteohub,2013-02-07 12:27:00,
2013-02-07 07:32:00,11.8,9.0,30.51,SE,128,0.0,0.0,88,0.00,,,0.00,meteohub,2013-02-07 12:32:00,
2013-02-07 07:37:00,12.0,9.1,30.51,SE,128,0.0,0.0,88,0.00,,,0.00,meteohub,2013-02-07 12:37:00,
2013-02-07 07:42:00,12.4,9.5,30.50,SE,128,0.0,0.0,88,0.00,,,0.00,meteohub,2013-02-07 12:42:00,
2013-02-07 07:47:00,12.6,9.7,30.51,SE,128,0.0,2.0,88,0.00,,,0.00,meteohub,2013-02-07 12:47:00,
2013-02-07 07:52:00,12.7,9.7,30.51,SE,128,0.0,2.0,87,0.00,,,0.00,meteohub,2013-02-07 12:52:00,
2013-02-07 07:57:00,13.1,10.0,30.51,SE,128,0.0,2.0,87,0.00,,,0.00,meteohub,2013-02-07 12:57:00,
2013-02-07 08:02:00,13.3,9.9,30.51,SE,128,0.0,1.0,86,0.00,,,0.00,meteohub,2013-02-07 13:02:00,
2013-02-07 08:07:00,13.5,9.9,30.51,SE,128,0.0,1.0,85,0.00,,,0.00,meteohub,2013-02-07 13:07:00,
2013-02-07 08:12:00,13.6,10.0,30.52,SE,128,0.0,1.0,85,0.00,,,0.00,meteohub,2013-02-07 13:12:00,
2013-02-07 08:17:00,14.0,10.4,30.52,SE,128,0.0,0.0,85,0.00,,,0.00,meteohub,2013-02-07 13:17:00,
2013-02-07 08:22:00,14.2,9.7,30.52,SE,128,0.0,1.0,82,0.00,,,0.00,meteohub,2013-02-07 13:22:00,
2013-02-07 08:27:00,14.4,9.9,30.51,SE,128,0.0,1.0,82,0.00,,,0.00,meteohub,2013-02-07 13:27:00,
2013-02-07 08:32:00,14.5,9.9,30.52,SE,128,0.0,1.0,81,0.00,,,0.00,meteohub,2013-02-07 13:32:00,
2013-02-07 08:37:00,15.1,10.2,30.52,SE,128,0.0,1.0,81,0.00,,,0.00,meteohub,2013-02-07 13:37:00,
2013-02-07 08:42:00,15.3,10.2,30.52,SE,128,0.0,1.0,80,0.00,,,0.00,meteohub,2013-02-07 13:42:00,
2013-02-07 08:47:00,15.4,9.5,30.52,SE,128,0.0,1.0,77,0.00,,,0.00,meteohub,2013-02-07 13:47:00,
2013-02-07 08:52:00,16.0,9.7,30.52,SE,135,0.0,1.0,76,0.00,,,0.00,meteohub,2013-02-07 13:52:00,
2013-02-07 08:57:00,16.2,10.2,30.52,SE,135,0.0,2.0,77,0.00,,,0.00,meteohub,2013-02-07 13:57:00,
2013-02-07 09:02:00,16.7,10.8,30.53,SE,135,0.0,2.0,77,0.00,,,0.00,meteohub,2013-02-07 14:02:00,
2013-02-07 09:07:00,17.1,10.6,30.52,SE,135,0.0,2.0,75,0.00,,,0.00,meteohub,2013-02-07 14:07:00,
2013-02-07 09:12:00,17.4,10.2,30.52,SE,135,0.0,1.0,73,0.00,,,0.00,meteohub,2013-02-07 14:12:00,
2013-02-07 09:17:00,17.8,10.0,30.52,SE,135,0.0,1.0,71,0.00,,,0.00,meteohub,2013-02-07 14:17:00,
2013-02-07 09:22:00,18.3,11.1,30.52,SE,135,0.0,2.0,73,0.00,,,0.00,meteohub,2013-02-07 14:22:00,
2013-02-07 09:27:00,18.7,11.1,30.52,SE,135,0.0,2.0,72,0.00,,,0.00,meteohub,2013-02-07 14:27:00,
2013-02-07 09:32:00,19.0,11.1,30.51,SE,135,0.0,2.0,71,0.00,,,0.00,meteohub,2013-02-07 14:32:00,
2013-02-07 09:38:00,19.4,11.3,30.51,SE,135,0.0,2.0,70,0.00,,,0.00,meteohub,2013-02-07 14:38:00,
2013-02-07 09:43:00,19.9,11.1,30.51,SE,135,0.0,1.0,68,0.00,,,0.00,meteohub,2013-02-07 14:43:00,
2013-02-07 09:48:00,20.3,11.1,30.51,SE,135,0.0,2.0,67,0.00,,,0.00,meteohub,2013-02-07 14:48:00,
2013-02-07 09:53:00,20.8,11.3,30.51,SE,135,0.0,2.0,66,0.00,,,0.00,meteohub,2013-02-07 14:53:00,
2013-02-07 09:58:00,21.4,10.8,30.51,East,91,1.0,1.0,63,0.00,,,0.00,meteohub,2013-02-07 14:58:00,
2013-02-07 10:03:00,21.6,10.6,30.51,East,91,0.0,2.0,62,0.00,,,0.00,meteohub,2013-02-07 15:03:00,
2013-02-07 10:08:00,21.9,9.9,30.51,East,91,0.0,2.0,59,0.00,,,0.00,meteohub,2013-02-07 15:08:00,
2013-02-07 10:13:00,22.3,9.0,30.51,ENE,64,1.0,2.0,56,0.00,,,0.00,meteohub,2013-02-07 15:13:00,
2013-02-07 10:18:00,22.5,8.8,30.51,NE,44,0.0,4.0,55,0.00,,,0.00,meteohub,2013-02-07 15:18:00,
2013-02-07 10:23:00,22.5,8.2,30.52,ESE,117,0.0,4.0,54,0.00,,,0.00,meteohub,2013-02-07 15:23:00,
2013-02-07 10:28:00,23.0,9.7,30.51,ENE,71,0.0,4.0,56,0.00,,,0.00,meteohub,2013-02-07 15:28:00,
2013-02-07 10:33:00,23.4,8.8,30.52,ESE,108,2.0,4.0,53,0.00,,,0.00,meteohub,2013-02-07 15:33:00,
2013-02-07 10:38:00,23.2,8.2,30.51,ESE,109,1.0,4.0,52,0.00,,,0.00,meteohub,2013-02-07 15:38:00,
2013-02-07 10:44:00,22.8,7.9,30.52,ESE,109,0.0,4.0,52,0.00,,,0.00,meteohub,2013-02-07 15:44:00,
2013-02-07 10:49:00,22.6,7.7,30.51,ESE,109,0.0,2.0,52,0.00,,,0.00,meteohub,2013-02-07 15:49:00,
2013-02-07 10:54:00,22.8,8.6,30.52,ESE,109,0.0,2.0,54,0.00,,,0.00,meteohub,2013-02-07 15:54:00,
2013-02-07 10:59:00,23.5,9.7,30.52,South,175,3.0,4.0,55,0.00,,,0.00,meteohub,2013-02-07 15:59:00,
2013-02-07 11:04:00,24.3,10.0,30.52,SE,136,2.0,5.0,54,0.00,,,0.00,meteohub,2013-02-07 16:04:00,
2013-02-07 11:09:00,24.6,10.8,30.51,SE,133,0.0,5.0,55,0.00,,,0.00,meteohub,2013-02-07 16:09:00,
2013-02-07 11:14:00,25.0,10.8,30.51,South,171,1.0,5.0,54,0.00,,,0.00,meteohub,2013-02-07 16:14:00,
2013-02-07 11:19:00,25.0,10.2,30.51,SSE,151,2.0,6.0,53,0.00,,,0.00,meteohub,2013-02-07 16:19:00,
2013-02-07 11:24:00,24.6,10.4,30.51,South,175,0.0,7.0,54,0.00,,,0.00,meteohub,2013-02-07 16:24:00,
2013-02-07 11:29:00,24.8,10.9,30.50,SSE,162,0.0,7.0,55,0.00,,,0.00,meteohub,2013-02-07 16:29:00,
2013-02-07 11:34:00,25.0,10.2,30.50,SE,142,1.0,7.0,53,0.00,,,0.00,meteohub,2013-02-07 16:34:00,
2013-02-07 11:39:00,25.5,11.1,30.50,SE,137,3.0,6.0,54,0.00,,,0.00,meteohub,2013-02-07 16:39:00,
2013-02-07 11:45:00,25.9,10.8,30.50,ESE,123,2.0,6.0,52,0.00,,,0.00,meteohub,2013-02-07 16:45:00,
2013-02-07 11:50:00,25.9,10.2,30.50,SE,131,1.0,6.0,51,0.00,,,0.00,meteohub,2013-02-07 16:50:00,
2013-02-07 11:55:00,25.7,10.6,30.50,SSE,168,2.0,4.0,52,0.00,,,0.00,meteohub,2013-02-07 16:55:00,
2013-02-07 12:00:00,25.7,10.6,30.49,SE,142,0.0,5.0,52,0.00,,,0.00,meteohub,2013-02-07 17:00:00,
2013-02-07 12:05:00,26.1,10.4,30.49,SE,133,2.0,6.0,51,0.00,,,0.00,meteohub,2013-02-07 17:05:00,
2013-02-07 12:10:00,25.9,10.2,30.48,SE,126,1.0,7.0,51,0.00,,,0.00,meteohub,2013-02-07 17:10:00,
2013-02-07 12:15:00,26.2,11.5,30.48,East,91,0.0,9.0,53,0.00,,,0.00,meteohub,2013-02-07 17:15:00,
2013-02-07 12:20:00,26.6,10.4,30.48,ENE,63,2.0,9.0,50,0.00,,,0.00,meteohub,2013-02-07 17:20:00,
2013-02-07 12:25:00,27.0,11.3,30.48,SE,138,0.0,9.0,51,0.00,,,0.00,meteohub,2013-02-07 17:25:00,
2013-02-07 12:30:00,27.3,11.7,30.48,SE,145,0.0,9.0,51,0.00,,,0.00,meteohub,2013-02-07 17:30:00,
2013-02-07 12:35:00,27.5,11.3,30.48,East,99,0.0,7.0,50,0.00,,,0.00,meteohub,2013-02-07 17:35:00,
2013-02-07 12:40:00,27.9,11.7,30.48,SSE,150,0.0,8.0,50,0.00,,,0.00,meteohub,2013-02-07 17:40:00,
2013-02-07 12:45:00,28.2,12.0,30.47,East,81,5.0,9.0,50,0.00,,,0.00,meteohub,2013-02-07 17:45:00,
2013-02-07 12:51:00,28.4,12.2,30.47,South,171,1.0,9.0,50,0.00,,,0.00,meteohub,2013-02-07 17:51:00,
2013-02-07 12:56:00,28.9,12.2,30.48,NE,34,0.0,9.0,49,0.00,,,0.00,meteohub,2013-02-07 17:56:00,
2013-02-07 13:01:00,29.1,12.4,30.48,SE,144,4.0,9.0,49,0.00,,,0.00,meteohub,2013-02-07 18:01:00,
2013-02-07 13:06:00,29.1,11.5,30.47,ESE,110,1.0,9.0,47,0.00,,,0.00,meteohub,2013-02-07 18:06:00,
2013-02-07 13:11:00,29.7,12.4,30.47,ENE,60,4.0,9.0,48,0.00,,,0.00,meteohub,2013-02-07 18:11:00,
2013-02-07 13:16:00,30.0,12.2,30.46,SSE,153,2.0,10.0,47,0.00,,,0.00,meteohub,2013-02-07 18:16:00,
2013-02-07 13:21:00,30.0,11.3,30.47,East,98,5.0,10.0,45,0.00,,,0.00,meteohub,2013-02-07 18:21:00,
2013-02-07 13:26:00,29.8,11.7,30.46,South,173,1.0,10.0,46,0.00,,,0.00,meteohub,2013-02-07 18:26:00,
2013-02-07 13:31:00,29.8,11.7,30.46,SE,137,7.0,10.0,46,0.00,,,0.00,meteohub,2013-02-07 18:31:00,
2013-02-07 13:36:00,30.0,11.3,30.46,SE,129,1.0,10.0,45,0.00,,,0.00,meteohub,2013-02-07 18:36:00,
2013-02-07 13:41:00,30.0,11.3,30.45,SE,131,0.0,10.0,45,0.00,,,0.00,meteohub,2013-02-07 18:41:00,
2013-02-07 13:46:00,30.2,11.5,30.45,SSE,158,2.0,10.0,45,0.00,,,0.00,meteohub,2013-02-07 18:46:00,
2013-02-07 13:51:00,30.6,11.7,30.45,NE,51,0.0,8.0,45,0.00,,,0.00,meteohub,2013-02-07 18:51:00,
2013-02-07 13:56:00,30.7,11.5,30.45,ENE,63,2.0,9.0,44,0.00,,,0.00,meteohub,2013-02-07 18:56:00,
2013-02-07 14:02:00,30.7,11.5,30.45,SSE,160,3.0,9.0,44,0.00,,,0.00,meteohub,2013-02-07 19:02:00,
2013-02-07 14:07:00,31.1,12.2,30.45,South,178,3.0,10.0,45,0.00,,,0.00,meteohub,2013-02-07 19:07:00,
2013-02-07 14:12:00,31.5,12.0,30.45,East,100,0.0,10.0,44,0.00,,,0.00,meteohub,2013-02-07 19:12:00,
2013-02-07 14:17:00,31.1,11.7,30.45,ENE,64,1.0,10.0,44,0.00,,,0.00,meteohub,2013-02-07 19:17:00,
2013-02-07 14:22:00,30.6,11.3,30.45,SE,144,2.0,10.0,44,0.00,,,0.00,meteohub,2013-02-07 19:22:00,
2013-02-07 14:27:00,30.0,10.8,30.45,East,92,4.0,9.0,44,0.00,,,0.00,meteohub,2013-02-07 19:27:00,
2013-02-07 14:32:00,29.7,11.5,30.45,ESE,119,0.0,9.0,46,0.00,,,0.00,meteohub,2013-02-07 19:32:00,
2013-02-07 14:37:00,29.1,10.9,30.45,East,96,7.0,9.0,46,0.00,,,0.00,meteohub,2013-02-07 19:37:00,
2013-02-07 14:42:00,28.6,10.4,30.45,South,189,0.0,9.0,46,0.00,,,0.00,meteohub,2013-02-07 19:42:00,
2013-02-07 14:47:00,28.2,11.1,30.44,East,93,0.0,9.0,48,0.00,,,0.00,meteohub,2013-02-07 19:47:00,
2013-02-07 14:52:00,28.0,10.4,30.44,East,82,1.0,9.0,47,0.00,,,0.00,meteohub,2013-02-07 19:52:00,
2013-02-07 14:57:00,27.9,10.2,30.44,SSW,194,3.0,8.0,47,0.00,,,0.00,meteohub,2013-02-07 19:57:00,
2013-02-07 15:02:00,27.5,10.4,30.44,East,84,5.0,9.0,48,0.00,,,0.00,meteohub,2013-02-07 20:02:00,
2013-02-07 15:07:00,27.3,9.7,30.44,ENE,58,4.0,9.0,47,0.00,,,0.00,meteohub,2013-02-07 20:07:00,
2013-02-07 15:12:00,27.3,10.2,30.44,SSE,162,1.0,10.0,48,0.00,,,0.00,meteohub,2013-02-07 20:12:00,
2013-02-07 15:17:00,27.5,10.4,30.44,SE,130,0.0,10.0,48,0.00,,,0.00,meteohub,2013-02-07 20:17:00,
2013-02-07 15:23:00,27.7,10.6,30.44,SSE,165,1.0,10.0,48,0.00,,,0.00,meteohub,2013-02-07 20:23:00,
2013-02-07 15:28:00,27.5,9.9,30.43,ENE,69,0.0,7.0,47,0.00,,,0.00,meteohub,2013-02-07 20:28:00,
2013-02-07 15:33:00,27.5,9.9,30.43,East,92,0.0,7.0,47,0.00,,,0.00,meteohub,2013-02-07 20:33:00,
2013-02-07 15:38:00,27.5,10.4,30.43,ENE,76,0.0,10.0,48,0.00,,,0.00,meteohub,2013-02-07 20:38:00,
2013-02-07 15:43:00,27.5,9.9,30.44,SE,144,0.0,10.0,47,0.00,,,0.00,meteohub,2013-02-07 20:43:00,
2013-02-07 15:48:00,27.3,9.7,30.43,SE,124,2.0,8.0,47,0.00,,,0.00,meteohub,2013-02-07 20:48:00,
2013-02-07 15:53:00,27.1,9.1,30.43,East,85,4.0,8.0,46,0.00,,,0.00,meteohub,2013-02-07 20:53:00,
2013-02-07 15:58:00,27.0,9.9,30.43,ESE,106,4.0,8.0,48,0.00,,,0.00,meteohub,2013-02-07 20:58:00,
2013-02-07 16:03:00,27.0,9.5,30.43,South,179,1.0,8.0,47,0.00,,,0.00,meteohub,2013-02-07 21:03:00,
2013-02-07 16:08:00,26.8,9.7,30.43,SSE,160,0.0,6.0,48,0.00,,,0.00,meteohub,2013-02-07 21:08:00,
2013-02-07 16:13:00,26.8,9.3,30.43,East,87,0.0,7.0,47,0.00,,,0.00,meteohub,2013-02-07 21:13:00,
2013-02-07 16:19:00,26.4,8.4,30.43,SW,216,3.0,7.0,46,0.00,,,0.00,meteohub,2013-02-07 21:19:00,
2013-02-07 16:24:00,26.2,8.8,30.43,South,171,8.0,8.0,47,0.00,,,0.00,meteohub,2013-02-07 21:24:00,
2013-02-07 16:29:00,26.1,8.1,30.42,SSW,212,2.0,8.0,46,0.00,,,0.00,meteohub,2013-02-07 21:29:00,
2013-02-07 16:34:00,25.9,7.9,30.42,SSE,168,0.0,8.0,46,0.00,,,0.00,meteohub,2013-02-07 21:34:00,
2013-02-07 16:39:00,25.9,7.9,30.42,SSW,200,0.0,8.0,46,0.00,,,0.00,meteohub,2013-02-07 21:39:00,
2013-02-07 16:44:00,25.9,8.4,30.42,South,188,0.0,7.0,47,0.00,,,0.00,meteohub,2013-02-07 21:44:00,
2013-02-07 16:49:00,25.9,7.9,30.42,SSE,162,2.0,5.0,46,0.00,,,0.00,meteohub,2013-02-07 21:49:00,
2013-02-07 16:54:00,25.7,8.2,30.42,South,183,2.0,6.0,47,0.00,,,0.00,meteohub,2013-02-07 21:54:00,
2013-02-07 16:59:00,25.5,7.7,30.42,SW,232,2.0,6.0,46,0.00,,,0.00,meteohub,2013-02-07 21:59:00,
2013-02-07 17:04:00,25.5,7.7,30.42,SSE,158,1.0,6.0,46,0.00,,,0.00,meteohub,2013-02-07 22:04:00,
2013-02-07 17:09:00,25.5,7.7,30.42,SW,223,2.0,6.0,46,0.00,,,0.00,meteohub,2013-02-07 22:09:00,
2013-02-07 17:14:00,25.3,7.5,30.42,South,173,2.0,6.0,46,0.00,,,0.00,meteohub,2013-02-07 22:14:00,
2013-02-07 17:20:00,25.2,7.7,30.43,SSW,195,1.0,6.0,47,0.00,,,0.00,meteohub,2013-02-07 22:20:00,
2013-02-07 17:25:00,25.0,7.2,30.43,SSE,160,1.0,5.0,46,0.00,,,0.00,meteohub,2013-02-07 22:25:00,
2013-02-07 17:30:00,25.0,7.5,30.43,SSE,168,1.0,5.0,47,0.00,,,0.00,meteohub,2013-02-07 22:30:00,
2013-02-07 17:35:00,24.8,7.3,30.43,SSE,168,0.0,5.0,47,0.00,,,0.00,meteohub,2013-02-07 22:35:00,
2013-02-07 17:40:00,24.6,7.3,30.44,SSE,165,0.0,5.0,47,0.00,,,0.00,meteohub,2013-02-07 22:40:00,
2013-02-07 17:45:00,24.4,6.6,30.44,South,179,0.0,5.0,46,0.00,,,0.00,meteohub,2013-02-07 22:45:00,
2013-02-07 17:50:00,24.4,7.5,30.44,South,179,0.0,3.0,48,0.00,,,0.00,meteohub,2013-02-07 22:50:00,
2013-02-07 17:55:00,24.3,7.3,30.44,ENE,57,1.0,3.0,48,0.00,,,0.00,meteohub,2013-02-07 22:55:00,
2013-02-07 18:00:00,24.1,7.7,30.44,SE,135,0.0,2.0,49,0.00,,,0.00,meteohub,2013-02-07 23:00:00,
2013-02-07 18:05:00,23.9,7.5,30.44,SE,135,0.0,2.0,49,0.00,,,0.00,meteohub,2013-02-07 23:05:00,
2013-02-07 18:10:00,23.5,7.2,30.44,SE,135,0.0,2.0,49,0.00,,,0.00,meteohub,2013-02-07 23:10:00,
2013-02-07 18:15:00,23.5,7.2,30.45,SE,135,0.0,1.0,49,0.00,,,0.00,meteohub,2013-02-07 23:15:00,
2013-02-07 18:20:00,23.5,7.2,30.45,SE,136,0.0,1.0,49,0.00,,,0.00,meteohub,2013-02-07 23:20:00,
2013-02-07 18:25:00,23.5,7.2,30.45,East,83,0.0,3.0,49,0.00,,,0.00,meteohub,2013-02-07 23:25:00,
2013-02-07 18:30:00,23.7,7.3,30.44,SE,129,0.0,3.0,49,0.00,,,0.00,meteohub,2013-02-07 23:30:00,
2013-02-07 18:35:00,23.5,7.7,30.45,SE,136,0.0,3.0,50,0.00,,,0.00,meteohub,2013-02-07 23:35:00,
2013-02-07 18:40:00,23.4,7.5,30.44,East,79,1.0,3.0,50,0.00,,,0.00,meteohub,2013-02-07 23:40:00,
2013-02-07 18:46:00,23.4,7.0,30.44,ESE,118,0.0,2.0,49,0.00,,,0.00,meteohub,2013-02-07 23:46:00,
2013-02-07 18:51:00,23.4,7.5,30.44,East,87,0.0,4.0,50,0.00,,,0.00,meteohub,2013-02-07 23:51:00,
2013-02-07 18:56:00,23.0,7.5,30.44,East,87,0.0,4.0,51,0.00,,,0.00,meteohub,2013-02-07 23:56:00,
2013-02-07 19:01:00,22.6,7.7,30.43,East,87,0.0,4.0,52,0.00,,,0.00,meteohub,2013-02-08 00:01:00,
2013-02-07 19:06:00,22.3,8.6,30.44,East,87,1.0,4.0,55,0.00,,,0.00,meteohub,2013-02-08 00:06:00,
2013-02-07 19:11:00,21.9,8.2,30.44,ESE,110,0.0,1.0,55,0.00,,,0.00,meteohub,2013-02-08 00:11:00,
2013-02-07 19:16:00,21.6,8.6,30.43,ESE,110,0.0,1.0,57,0.00,,,0.00,meteohub,2013-02-08 00:16:00,
2013-02-07 19:21:00,21.2,8.8,30.44,ESE,110,0.0,1.0,58,0.00,,,0.00,meteohub,2013-02-08 00:21:00,
2013-02-07 19:26:00,21.0,8.6,30.44,ESE,110,0.0,1.0,58,0.00,,,0.00,meteohub,2013-02-08 00:26:00,
2013-02-07 19:31:00,21.0,8.6,30.44,ESE,110,0.0,1.0,58,0.00,,,0.00,meteohub,2013-02-08 00:31:00,
2013-02-07 19:36:00,21.2,9.5,30.44,ESE,110,0.0,1.0,60,0.00,,,0.00,meteohub,2013-02-08 00:36:00,
2013-02-07 19:41:00,21.2,8.8,30.44,ESE,110,0.0,1.0,58,0.00,,,0.00,meteohub,2013-02-08 00:41:00,
2013-02-07 19:46:00,21.4,9.7,30.44,ESE,110,0.0,2.0,60,0.00,,,0.00,meteohub,2013-02-08 00:46:00,
2013-02-07 19:51:00,21.4,9.3,30.45,ESE,110,0.0,2.0,59,0.00,,,0.00,meteohub,2013-02-08 00:51:00,
2013-02-07 19:57:00,21.6,9.1,30.45,SE,146,2.0,2.0,58,0.00,,,0.00,meteohub,2013-02-08 00:57:00,
2013-02-07 20:02:00,21.9,8.2,30.45,SE,139,0.0,7.0,55,0.00,,,0.00,meteohub,2013-02-08 01:02:00,
2013-02-07 20:07:00,22.3,8.2,30.45,SE,139,0.0,7.0,54,0.00,,,0.00,meteohub,2013-02-08 01:07:00,
2013-02-07 20:12:00,22.6,8.1,30.44,SSE,158,0.0,7.0,53,0.00,,,0.00,meteohub,2013-02-08 01:12:00,
2013-02-07 20:17:00,22.8,8.2,30.44,SSE,159,0.0,3.0,53,0.00,,,0.00,meteohub,2013-02-08 01:17:00,
2013-02-07 20:22:00,22.8,7.9,30.44,South,170,5.0,5.0,52,0.00,,,0.00,meteohub,2013-02-08 01:22:00,
2013-02-07 20:27:00,23.2,8.2,30.44,SSE,164,0.0,5.0,52,0.00,,,0.00,meteohub,2013-02-08 01:27:00,
2013-02-07 20:32:00,23.2,7.7,30.44,ESE,110,0.0,5.0,51,0.00,,,0.00,meteohub,2013-02-08 01:32:00,
2013-02-07 20:37:00,23.2,7.7,30.45,South,169,0.0,5.0,51,0.00,,,0.00,meteohub,2013-02-08 01:37:00,
2013-02-07 20:42:00,23.2,7.7,30.45,NE,43,1.0,7.0,51,0.00,,,0.00,meteohub,2013-02-08 01:42:00,
2013-02-07 20:47:00,23.2,7.7,30.44,SE,131,0.0,7.0,51,0.00,,,0.00,meteohub,2013-02-08 01:47:00,
2013-02-07 20:52:00,23.2,7.7,30.44,SE,129,0.0,7.0,51,0.00,,,0.00,meteohub,2013-02-08 01:52:00,
2013-02-07 20:57:00,23.2,7.3,30.44,SE,140,0.0,3.0,50,0.00,,,0.00,meteohub,2013-02-08 01:57:00,
2013-02-07 21:02:00,23.2,7.7,30.44,SE,137,0.0,5.0,51,0.00,,,0.00,meteohub,2013-02-08 02:02:00,
2013-02-07 21:07:00,23.2,7.7,30.44,SE,133,3.0,6.0,51,0.00,,,0.00,meteohub,2013-02-08 02:07:00,
2013-02-07 21:12:00,23.2,7.7,30.44,ENE,62,0.0,6.0,51,0.00,,,0.00,meteohub,2013-02-08 02:12:00,
2013-02-07 21:18:00,23.2,7.7,30.43,SE,127,0.0,6.0,51,0.00,,,0.00,meteohub,2013-02-08 02:18:00,
2013-02-07 21:23:00,23.0,7.5,30.44,ESE,119,0.0,6.0,51,0.00,,,0.00,meteohub,2013-02-08 02:23:00,
2013-02-07 21:28:00,23.0,8.1,30.44,SSE,158,4.0,6.0,52,0.00,,,0.00,meteohub,2013-02-08 02:28:00,
2013-02-07 21:33:00,22.8,7.3,30.44,East,100,0.0,7.0,51,0.00,,,0.00,meteohub,2013-02-08 02:33:00,
2013-02-07 21:38:00,23.0,8.1,30.44,ENE,65,2.0,7.0,52,0.00,,,0.00,meteohub,2013-02-08 02:38:00,
2013-02-07 21:43:00,23.0,8.1,30.43,South,183,0.0,7.0,52,0.00,,,0.00,meteohub,2013-02-08 02:43:00,
2013-02-07 21:48:00,23.0,8.4,30.43,SSE,150,0.0,6.0,53,0.00,,,0.00,meteohub,2013-02-08 02:48:00,
2013-02-07 21:53:00,23.0,8.1,30.43,South,172,0.0,5.0,52,0.00,,,0.00,meteohub,2013-02-08 02:53:00,
2013-02-07 21:58:00,23.2,8.2,30.43,ESE,106,0.0,7.0,52,0.00,,,0.00,meteohub,2013-02-08 02:58:00,
2013-02-07 22:03:00,23.2,8.2,30.43,South,170,0.0,7.0,52,0.00,,,0.00,meteohub,2013-02-08 03:03:00,
2013-02-07 22:08:00,23.4,7.9,30.43,South,182,0.0,7.0,51,0.00,,,0.00,meteohub,2013-02-08 03:08:00,
2013-02-07 22:13:00,23.4,8.4,30.42,SE,136,0.0,7.0,52,0.00,,,0.00,meteohub,2013-02-08 03:13:00,
2013-02-07 22:19:00,23.4,8.4,30.42,SE,142,1.0,7.0,52,0.00,,,0.00,meteohub,2013-02-08 03:19:00,
2013-02-07 22:24:00,23.4,8.4,30.42,East,100,0.0,6.0,52,0.00,,,0.00,meteohub,2013-02-08 03:24:00,
2013-02-07 22:29:00,23.4,7.9,30.42,South,174,1.0,6.0,51,0.00,,,0.00,meteohub,2013-02-08 03:29:00,
2013-02-07 22:34:00,23.4,7.9,30.42,South,175,1.0,8.0,51,0.00,,,0.00,meteohub,2013-02-08 03:34:00,
2013-02-07 22:39:00,23.5,8.1,30.42,SSE,162,0.0,8.0,51,0.00,,,0.00,meteohub,2013-02-08 03:39:00,
2013-02-07 22:44:00,23.5,8.1,30.42,East,86,0.0,8.0,51,0.00,,,0.00,meteohub,2013-02-08 03:44:00,
2013-02-07 22:49:00,23.4,8.4,30.42,East,84,8.0,8.0,52,0.00,,,0.00,meteohub,2013-02-08 03:49:00,
2013-02-07 22:54:00,23.4,8.4,30.42,South,173,0.0,8.0,52,0.00,,,0.00,meteohub,2013-02-08 03:54:00,
2013-02-07 22:59:00,23.4,8.4,30.42,East,81,2.0,8.0,52,0.00,,,0.00,meteohub,2013-02-08 03:59:00,
2013-02-07 23:04:00,23.2,8.6,30.42,South,170,0.0,8.0,53,0.00,,,0.00,meteohub,2013-02-08 04:04:00,
2013-02-07 23:09:00,23.2,9.0,30.41,SE,146,1.0,8.0,54,0.00,,,0.00,meteohub,2013-02-08 04:09:00,
2013-02-07 23:14:00,23.4,9.1,30.42,SSE,162,0.0,6.0,54,0.00,,,0.00,meteohub,2013-02-08 04:14:00,
2013-02-07 23:19:00,23.4,9.1,30.41,SSE,161,0.0,6.0,54,0.00,,,0.00,meteohub,2013-02-08 04:19:00,
2013-02-07 23:25:00,23.4,9.1,30.41,South,182,6.0,6.0,54,0.00,,,0.00,meteohub,2013-02-08 04:25:00,
2013-02-07 23:30:00,23.4,9.5,30.41,South,180,3.0,4.0,55,0.00,,,0.00,meteohub,2013-02-08 04:30:00,
2013-02-07 23:35:00,23.5,10.2,30.41,SE,137,0.0,8.0,56,0.00,,,0.00,meteohub,2013-02-08 04:35:00,
2013-02-07 23:40:00,23.5,10.2,30.40,NE,55,0.0,8.0,56,0.00,,,0.00,meteohub,2013-02-08 04:40:00,
2013-02-07 23:45:00,23.5,10.6,30.40,SE,124,0.0,8.0,57,0.00,,,0.00,meteohub,2013-02-08 04:45:00,
2013-02-07 23:50:00,23.5,10.6,30.39,ENE,72,0.0,8.0,57,0.00,,,0.00,meteohub,2013-02-08 04:50:00,
2013-02-07 23:55:00,23.5,10.9,30.39,SSE,165,4.0,8.0,58,0.00,,,0.00,meteohub,2013-02-08 04:55:00,